map of CGB home
Great Circle Mapper logo
CGB - Airport
Location
City:  Cuiabá (Várzea Grande)), Mato Grosso, Brazil
Name:Marechal Rondon International Airport
ICAO:SBCY
IATA:CGB

Details
Type:Airport (Aerodrome, Airfield)
Use:Public/Civil, International (customs port of entry)
Latitude:15°39'11"S (-15.652930)
Longitude:56°07'00"W (-56.116718)
Datum:WGS 1984
Elevation:617 ft (188 m)
Variation:17.21°W (WMM2015 magnetic declination)
-0.15° annual change
Runways:1
Longest:7546 × 148 ft (2300 × 45 m), paved

Time
Time Zone:UTC-4 (DST-3)
Local Time:

Weather
METAR:SBCY 271100Z 02002KT CAVOK 25/18 Q1014
TAF:SBCY 270400Z 2706/2806 21005KT CAVOK TN23/2709Z TX30/2718Z
BECMG 2711/2713 18005KT
BECMG 2717/2719 23008KT
BECMG 2722/2724 18003KT
RMK PEO

Related Locations
Nearby:
Farthest:RPLJ: 12320 mi / 19827 km
Jomalig Island, Quezon, PH

Find:

   beyond  
but within

Other Information
Maps:
NOTAMs:
Links:
Sources:

  
flag of Brazil
flag of Mato Grosso
  

Sectional Chart

Flight Planning
at skyvector.com

Satellite Image

Google Maps Satellite view

 

Copyright © 2004-2016 Karl L. Swartz. All rights reserved.
The Great Circle Mapper name and logo are trademarks of the Great Circle Mapper.
All other trademarks mentioned herein belong to their respective owners.
Please see credits for attibutions and further copyright information.

  Follow gcmap on Facebook Follow gcmap on Twitter Follow gcmap on Google+ GCmap on LinkedIn

hCard Microformat

Geo Microformat